KF6ILA Weather Reports


time (UTC)temp
F
wind
direction
speed
knots
gust
knots
rain 1hr
in
rain 24hr
in
rain mn
in
humidity
%
barometer
mb
20260504060152 42 261 20.0 29.5 0.00 0.00 0.00 97 1009.5
20260504050724 43 271 22.6 31.3 0.00 0.00 0.00 97 1010.4
20260504050228 43 268 20.9 31.3 0.00 0.00 0.00 98 1010.0
20260504045731 43 270 20.9 31.3 0.00 0.00 0.00 98 1009.8
20260504045233 43 271 21.7 32.2 0.00 0.00 0.00 98 1010.3
20260504044737 43 260 19.1 32.2 0.00 0.00 0.00 98 1010.2
20260504044239 43 267 13.9 29.5 0.00 0.00 0.00 99 1010.0
20260504043742 43 261 17.4 26.1 0.00 0.00 0.00 99 1009.9
20260504043246 43 266 16.5 26.1 0.00 0.00 0.00 99 1009.9
20260504042749 43 255 13.0 25.2 0.00 0.00 0.00 99 1010.2
20260504042252 43 269 15.6 27.8 0.00 0.00 0.00 99 1009.9
20260504041755 43 264 20.0 27.8 0.00 0.00 0.00 99 1009.8
20260504041257 43 263 18.2 27.8 0.00 0.00 0.00 99 1009.9
20260504040800 43 262 18.2 27.8 0.00 0.00 0.00 99 1010.0
20260504040303 43 273 14.8 27.8 0.00 0.00 0.00 99 1010.1
20260504035806 43 267 18.2 27.8 0.00 0.00 0.00 99 1009.9
20260504035309 43 280 13.9 24.3 0.00 0.00 0.00 99 1010.0
20260504034813 43 272 13.0 24.3 0.00 0.00 0.00 98 1010.1
20260504034315 43 269 14.8 24.3 0.00 0.00 0.00 98 1010.0
20260504033818 43 274 17.4 25.2 0.00 0.00 0.00 98 1010.1
20260504033321 44 270 14.8 25.2 0.00 0.00 0.00 98 1010.9
20260504032327 44 278 13.9 22.6 0.00 0.00 0.00 98 1010.5
20260504031830 44 276 13.9 21.7 0.00 0.00 0.00 98 1010.6
20260504031333 44 278 15.6 20.0 0.00 0.00 0.00 98 1010.5
20260504030339 44 266 13.9 23.5 0.00 0.00 0.00 98 1010.2
20260504025842 44 273 15.6 23.5 0.00 0.00 0.00 98 1009.9
20260504025345 44 283 13.0 23.5 0.00 0.00 0.00 98 1009.9
20260504024849 44 268 13.9 26.1 0.00 0.00 0.00 97 1009.9
20260504024517 44 259 13.9 26.1 0.00 0.00 0.00 97 1010.0
20260504024352 44 259 13.9 26.1 0.00 0.00 0.00 97 1010.0
20260504023855 44 263 13.0 23.5 0.00 0.00 0.00 97 1010.1
20260504023358 45 286 13.0 23.5 0.00 0.00 0.00 97 1009.9
20260504022937 45 281 11.3 20.0 0.00 0.00 0.00 96 1010.2
20260504022901 45 281 11.3 20.0 0.00 0.00 0.00 96 1010.2
20260504022404 45 271 12.2 25.2 0.00 0.00 0.00 96 1010.1
20260504021907 45 278 15.6 25.2 0.00 0.00 0.00 96 1010.0
20260504021410 45 275 11.3 20.0 0.00 0.00 0.00 95 1009.7
20260504020913 46 272 13.0 27.8 0.00 0.00 0.00 95 1009.9
20260504020416 46 269 14.8 28.7 0.00 0.00 0.00 95 1009.8
20260504015919 46 257 19.1 30.4 0.00 0.00 0.00 94 1009.5
20260504015422 47 262 20.0 30.4 0.00 0.00 0.00 94 1009.6
20260504014925 47 270 13.9 28.7 0.00 0.00 0.00 94 1009.8
20260504014428 47 266 20.9 30.4 0.00 0.00 0.00 93 1009.8
20260504013931 48 259 20.0 30.4 0.00 0.00 0.00 93 1009.6
20260504013434 48 269 19.1 26.9 0.00 0.00 0.00 93 1009.5
20260504012440 49 268 19.1 26.9 0.00 0.00 0.00 92 1009.3
20260504011943 49 271 16.5 26.1 0.00 0.00 0.00 92 1009.4
20260504011446 49 266 20.0 26.1 0.00 0.00 0.00 92 1010.3
20260504011144 50 267 15.6 23.5 0.00 0.00 0.00 92 1010.2
20260504010949 50 267 15.6 23.5 0.00 0.00 0.00 92 1010.2
20260504010604 50 265 14.8 26.1 0.00 0.00 0.00 91 1010.3
20260504010451 50 265 14.8 26.1 0.00 0.00 0.00 91 1010.3
20260504005954 50 269 16.5 28.7 0.00 0.00 0.00 91 1010.2
20260504005457 50 269 13.0 28.7 0.00 0.00 0.00 91 1010.1
20260504005000 50 264 20.0 26.9 0.00 0.00 0.00 91 1010.3
20260504004632 50 270 19.1 26.9 0.00 0.00 0.00 90 1010.0
20260504004503 50 270 19.1 26.9 0.00 0.00 0.00 90 1010.0
20260504003510 50 267 18.2 26.1 0.00 0.00 0.00 90 1010.2
20260504003012 50 270 19.1 26.1 0.00 0.00 0.00 89 1009.9
20260504002736 51 263 17.4 25.2 0.00 0.00 0.00 89 1009.9
20260504002515 51 263 17.4 25.2 0.00 0.00 0.00 89 1009.9
20260504002120 51 266 16.5 24.3 0.00 0.00 0.00 89 1009.8
20260504002021 51 266 16.5 24.3 0.00 0.00 0.00 89 1009.8
20260504001025 51 268 17.4 26.1 0.00 0.00 0.00 89 1009.4
20260504000528 51 268 16.5 20.9 0.00 0.00 0.00 89 1010.1
20260504000031 51 260 13.9 24.3 0.00 0.00 0.00 90 1010.1
20260503235534 51 266 17.4 24.3 0.00 0.00 0.00 89 1009.9
20260503235036 51 263 17.4 24.3 0.00 0.00 0.00 89 1009.8
20260503234637 51 267 15.6 26.1 0.00 0.00 0.00 89 1009.8
20260503234540 51 267 15.6 26.1 0.00 0.00 0.00 89 1009.8
20260503234043 51 271 18.2 26.1 0.00 0.00 0.00 89 1009.9
20260503233937 51 271 15.6 22.6 0.00 0.00 0.00 90 1009.8
20260503233744 51 271 15.6 22.6 0.00 0.00 0.00 90 1009.8
20260503233550 51 271 15.6 22.6 0.00 0.00 0.00 90 1009.8
20260503233410 51 269 16.5 20.9 0.00 0.00 0.00 90 1009.8
20260503233134 51 269 16.5 20.9 0.00 0.00 0.00 90 1009.8
20260503233049 51 269 16.5 20.9 0.00 0.00 0.00 90 1009.8
20260503232707 52 261 13.9 20.0 0.00 0.00 0.00 90 1009.8
20260503232552 52 261 13.9 20.0 0.00 0.00 0.00 90 1009.8
20260503232246 52 271 12.2 21.7 0.00 0.00 0.00 89 1009.8
20260503232055 52 271 12.2 21.7 0.00 0.00 0.00 89 1009.8
20260503231558 52 272 14.8 26.1 0.00 0.00 0.00 88 1009.8
20260503231151 53 265 14.8 26.1 0.00 0.00 0.00 87 1009.8
20260503231101 53 265 14.8 26.1 0.00 0.00 0.00 87 1009.8
20260503230603 53 264 15.6 24.3 0.00 0.00 0.00 86 1009.8
20260503230106 53 272 19.1 24.3 0.00 0.00 0.00 86 1009.7
20260503225610 53 269 15.6 26.1 0.00 0.00 0.00 87 1010.0
20260503225113 52 266 16.5 26.1 0.00 0.00 0.00 88 1009.7
20260503224616 52 264 14.8 25.2 0.00 0.00 0.00 88 1009.8
20260503224211 52 274 18.2 26.9 0.00 0.00 0.00 89 1009.7
20260503224119 52 274 18.2 26.9 0.00 0.00 0.00 89 1009.7
20260503223623 52 263 16.5 26.9 0.00 0.00 0.00 89 1010.6
20260503223125 52 257 14.8 28.7 0.00 0.00 0.00 89 1010.6
20260503222628 52 268 16.5 28.7 0.00 0.00 0.00 89 1010.4
20260503222131 53 265 18.2 27.8 0.00 0.00 0.00 88 1010.3
20260503221858 53 270 19.1 27.8 0.00 0.00 0.00 87 1010.5
20260503221634 53 270 19.1 27.8 0.00 0.00 0.00 87 1010.5
20260503221218 54 262 18.2 25.2 0.00 0.00 0.00 88 1010.5
20260503221137 54 262 18.2 25.2 0.00 0.00 0.00 88 1010.5
20260503220640 54 270 15.6 25.2 0.00 0.00 0.00 88 1010.3
20260503220318 54 264 20.0 26.1 0.00 0.00 0.00 87 1010.5
20260503220143 54 264 20.0 26.1 0.00 0.00 0.00 87 1010.5
20260503215731 54 269 20.0 26.1 0.00 0.00 0.00 86 1010.5
20260503215646 54 269 20.0 26.1 0.00 0.00 0.00 86 1010.5
20260503215235 54 265 17.4 26.1 0.00 0.00 0.00 86 1010.4
20260503215149 54 265 17.4 26.1 0.00 0.00 0.00 86 1010.4
20260503214831 55 277 18.2 26.1 0.00 0.00 0.00 86 1010.3
20260503214652 55 277 18.2 26.1 0.00 0.00 0.00 86 1010.3
20260503214231 55 269 17.4 25.2 0.00 0.00 0.00 87 1010.4
20260503214155 55 269 17.4 25.2 0.00 0.00 0.00 87 1010.4
20260503213917 54 275 17.4 26.1 0.00 0.00 0.00 85 1010.5
20260503213658 54 275 17.4 26.1 0.00 0.00 0.00 85 1010.5
20260503213301 54 270 19.1 26.1 0.00 0.00 0.00 86 1010.6
20260503213200 54 270 19.1 26.1 0.00 0.00 0.00 86 1010.6
20260503212703 55 272 14.8 23.5 0.00 0.00 0.00 87 1010.6
20260503211710 54 281 13.9 24.3 0.00 0.00 0.00 87 1010.7
20260503210715 54 268 13.0 20.0 0.00 0.00 0.00 87 1010.7
20260503210219 54 278 12.2 20.0 0.00 0.00 0.00 89 1010.9
20260503205722 54 261 13.9 20.9 0.00 0.00 0.00 89 1010.8
20260503205306 54 264 12.2 22.6 0.00 0.00 0.00 89 1011.0
20260503205224 54 264 12.2 22.6 0.00 0.00 0.00 89 1011.0
20260503203734 53 269 11.3 20.0 0.00 0.00 0.00 93 1010.8
20260503203400 52 289 13.0 20.0 0.00 0.00 0.00 93 1010.7
20260503203237 52 289 13.0 20.0 0.00 0.00 0.00 93 1010.7
20260503202740 52 289 13.0 18.2 0.00 0.00 0.00 93 1010.8
20260503202243 52 277 10.4 20.0 0.00 0.00 0.00 94 1011.2
20260503201746 52 286 12.2 20.0 0.00 0.00 0.00 94 1011.2
20260503201249 52 301 13.9 18.2 0.00 0.00 0.00 94 1011.0
20260503200752 52 297 11.3 19.1 0.00 0.00 0.00 93 1011.1
20260503200336 52 296 13.9 19.1 0.00 0.00 0.00 92 1011.9
20260503200255 52 296 13.9 19.1 0.00 0.00 0.00 92 1011.9
20260503195830 53 292 11.3 18.2 0.00 0.00 0.00 90 1011.8
20260503195758 53 292 11.3 18.2 0.00 0.00 0.00 90 1011.8
20260503194923 55 295 10.4 16.5 0.00 0.00 0.00 85 1011.9
20260503194804 55 295 10.4 16.5 0.00 0.00 0.00 85 1011.9
20260503193313 59 296 9.6 15.6 0.00 0.00 0.00 81 1011.8
20260503192934 59 311 9.6 15.6 0.00 0.00 0.00 81 1011.9
20260503192816 59 311 9.6 15.6 0.00 0.00 0.00 81 1011.9
20260503191822 61 321 9.6 17.4 0.00 0.00 0.00 75 1011.9
20260503191325 62 304 8.7 17.4 0.00 0.00 0.00 75 1012.0
20260503190418 63 279 9.6 17.4 0.00 0.00 0.00 71 1012.0
20260503190331 63 279 9.6 17.4 0.00 0.00 0.00 71 1012.0
20260503183349 67 243 9.6 18.2 0.00 0.00 0.00 45 1012.3
20260503182355 65 262 5.2 13.0 0.00 0.00 0.00 55 1012.1
20260503181858 64 262 6.1 12.2 0.00 0.00 0.00 61 1012.3
20260503180904 63 313 5.2 12.2 0.00 0.00 0.00 61 1012.4
20260503180407 64 273 7.0 13.0 0.00 0.00 0.00 65 1012.4
20260503175943 63 273 7.0 13.0 0.00 0.00 0.00 65 1012.3
20260503175910 63 273 7.0 13.0 0.00 0.00 0.00 65 1012.3
20260503175413 63 231 7.8 15.6 0.00 0.00 0.00 65 1012.3
20260503174916 63 263 7.0 15.6 0.00 0.00 0.00 68 1012.2
20260503174419 63 278 10.4 15.6 0.00 0.00 0.00 68 1012.2
20260503173922 63 284 7.8 12.2 0.00 0.00 0.00 69 1012.2
20260503172928 62 259 6.1 13.0 0.00 0.00 0.00 72 1012.1
20260503171934 63 287 10.4 14.8 0.00 0.00 0.00 69 1012.1
20260503130707 53 273 7.0 9.6 0.00 0.00 0.00 65 1010.2
20260503130210 54 266 5.2 7.8 0.00 0.00 0.00 63 1010.0
20260503110819 58 286 9.6 14.8 0.00 0.00 0.00 43 1010.6
20260503090434 61 269 7.8 9.6 0.00 0.00 0.00 30 1011.7
20260503081504 62 272 7.8 11.3 0.00 0.00 0.00 29 1012.2
20260503071043 62 258 7.8 11.3 0.00 0.00 0.00 30 1012.8
20260503070618 62 259 7.0 12.2 0.00 0.00 0.00 29 1012.8
20260503070546 62 259 7.0 12.2 0.00 0.00 0.00 29 1012.8